Location: Paderno d�Adda
(45.6667°N, 9.4333°E)
Time: 23:01:29
(UTC+00:00)

Cosmos 1125 Rocket - Pass Details

Date: 22 January 2021
Orbit: 757 x 780 km, 74.0° (Epoch: 08 March)

Event Time Altitude Azimuth Distance (km) Brightness Sun altitude
Exits shadow 04:40:45 - 351° (N) 2,889 6.3 -23.0°
Reaches altitude 10° 04:42:27 10° 360° (N) 2,336 5.9 -22.7°
Maximum altitude 04:46:50 26° 56° (NE) 1,516 5.5 -22.0°
Drops below altitude 10° 04:51:13 10° 111° (ESE) 2,332 7.1 -21.2°
Sets 04:53:59 0° 125° (SE) 3,257 7.8 -20.7°
